Home   Weather   Lüneburg   Past weeks

Flag for Germany Past Weather in Lüneburg, Lower Saxony, Germany — Yesterday and Last 2 Weeks

Now
68 °F

Scattered clouds.


Feels Like: 68 °F
Forecast: 58 / 71 °F
Wind: 14 mph from West

Location: Fassberg

Current Time: Sep 28, 2016 at 7:10:56 PM

Latest Report: Sep 28, 2016 at 6:20 PM


Visibility: N/A

Pressure: 30.09 "Hg

Humidity: 56%

Dew Point: 52 °F

Location of LüneburgLocation

Past Weather in Lüneburg — Graph

°F

Lüneburg Temperature Yesterday

Maximum temperature yesterday: 70 °F (at 1:20 PM)
Minimum temperature yesterday: 48 °F (at 7:20 AM)
Average temperature yesterday: 59 °F

High & Low Weather Summary for the Past Weeks

 TemperatureHumidityPressure
High88 °F (Sep 13, 5:20 PM)100% (Sep 21, 8:20 PM)30.30 "Hg (Sep 21, 8:20 PM)
Low39 °F (Sep 24, 6:45 AM)24% (Sep 13, 5:20 PM)29.89 "Hg (Sep 16, 1:20 AM)
Average60 °F74%30.10 "Hg
* Reported Sep 13 5:20 PM — Sep 28 5:20 PM, Lüneburg, Weather by CustomWeather, © 2016

Note: Actual official high and low records may vary slightly from our data, if they occured in-between our weather recording intervals... More about our weather records

Advertising

Lüneburg Weather History for the Previous 24 Hours

Scroll right to see more
 ConditionsComfort  
Time TempWeatherWind HumidityBarometerVisibility
5:20 PM
Wed, Sep 28
70 °FBroken clouds.17 mph53%30.09 "HgN/A
4:20 PM68 °FBroken clouds.17 mph56%30.09 "HgN/A
3:20 PM68 °FBroken clouds.22 mph53%30.09 "HgN/A
2:20 PM68 °FPartly sunny.12 mph56%30.12 "HgN/A
1:20 PM66 °FPartly sunny.17 mph60%30.12 "HgN/A
12:58 PM66 °FPartly sunny.21 mph60%30.12 "HgN/A
12:20 PM66 °FPartly sunny.17 mph60%30.12 "HgN/A
11:20 AM64 °FPartly sunny.17 mph64%30.12 "HgN/A
10:20 AM63 °FBroken clouds.17 mph64%30.15 "HgN/A
9:20 AM61 °FPartly sunny.18 mph68%30.12 "HgN/A
8:20 AM57 °FPartly sunny.13 mph72%30.12 "HgN/A
7:20 AM55 °FBroken clouds.10 mph77%30.15 "HgN/A
6:20 AM55 °FPassing clouds.12 mph77%30.15 "HgN/A
5:20 AM55 °FPassing clouds.12 mph77%30.18 "HgN/A
4:20 AM54 °FPassing clouds.8 mph82%30.18 "HgN/A
3:20 AM54 °FPassing clouds.8 mph82%30.21 "HgN/A
2:20 AM54 °FPassing clouds.7 mph82%30.21 "HgN/A
1:20 AM54 °FPassing clouds.3 mph88%30.24 "HgN/A
12:20 AM50 °FPassing clouds.1 mph94%30.24 "HgN/A
11:20 PM
Tue, Sep 27
48 °FPassing clouds.1 mph94%30.24 "HgN/A
10:20 PM52 °FPassing clouds.2 mph88%30.27 "HgN/A
9:20 PM52 °FPassing clouds.1 mph88%30.27 "HgN/A
8:20 PM55 °FPassing clouds.1 mph82%30.27 "HgN/A
7:20 PM64 °FPassing clouds.3 mph60%30.27 "HgN/A
Weather by CustomWeather, © 2016

See weather overviewHow to use our weather pages